Artesia, NM

5:03 AM MDT on May 24, 2017 (GMT -0600)
Artesia Municipal

Weather History for KATS - June, 2013

Change the Weather History Date:

Wednesday, June 5, 2013

  Actual Average Record
Temperature  
Mean Temperature 80 °F -  
Max Temperature 93 °F 89 °F 104 °F (2014)
Min Temperature 68 °F 56 °F 47 °F (1970)
Cooling Degree Days 16    
Growing Degree Days 30 (Base 50)    
Moisture  
Dew Point 42 °F    
Average Humidity 28    
Maximum Humidity 52    
Minimum Humidity 13    
Precipitation  
Precipitation 0.00 in - - ()
Sea Level Pressure  
Sea Level Pressure 29.91 in    
Wind  
Wind Speed 14 mph (North)    
Max Wind Speed 48 mph    
Max Gust Speed 58 mph    
Visibility 9 miles    
Events Rain    
Averages and records for this station are not official NWS values.
T = Trace of Precipitation, MM = Missing Value Source: NWS Daily Summary

Daily Weather History Graph

Daily Weather History Graph

Search for Another Location

Airport or City:

Trip Planner

Search our weather history database for the weather conditions in past years. The results will help you decide how hot, cold, wet, or windy it might be!

Date:

Astronomy

Jun. 05, 2013 Rise Set
Actual Time 5:49 AM MDT 8:03 PM MDT
Civil Twilight 5:21 AM MDT 8:31 PM MDT
Nautical Twilight 4:46 AM MDT 9:06 PM MDT
Astronomical Twilight 4:09 AM MDT 9:44 PM MDT
Moon 3:47 AM MDT (6/5) 5:38 PM MDT (6/5)
Length of Visible Light 15h 10m
Length of Day
14h 13m
Waning Crescent, 8% of the Moon is Illuminated
Jun 5
Waning Crescent
Jun 8
New
Jun 16
First Quarter
Jun 23
Full
Jun 29
Last Quarter

Hourly Weather History & Observations

Time (MDT) Temp. Heat Index Dew Point Humidity Pressure Visibility Wind Dir Wind Speed Gust Speed Precip Events Conditions
12:15 AM 78.8 °F - 26.6 °F 15% 29.84 in 10.0 mi West 13.8 mph - N/A   Clear
12:35 AM 78.8 °F - 26.6 °F 15% 29.84 in 10.0 mi West 17.3 mph - N/A   Clear
12:55 AM 78.8 °F - 26.6 °F 15% 29.84 in 10.0 mi West 15.0 mph - N/A   Clear
1:15 AM 77.0 °F - 28.4 °F 17% 29.84 in 10.0 mi West 15.0 mph - N/A   Clear
1:35 AM 78.8 °F - 28.4 °F 16% 29.83 in 10.0 mi West 15.0 mph - N/A   Clear
1:55 AM 77.0 °F - 28.4 °F 17% 29.83 in 10.0 mi West 15.0 mph - N/A   Clear
2:15 AM 80.6 °F - 28.4 °F 15% 29.83 in 10.0 mi West 13.8 mph - N/A   Clear
2:35 AM 77.0 °F - 28.4 °F 17% 29.82 in 10.0 mi West 16.1 mph - N/A   Clear
2:55 AM 77.0 °F - 30.2 °F 18% 29.82 in 10.0 mi West 17.3 mph - N/A   Clear
3:15 AM 78.8 °F - 30.2 °F 17% 29.82 in 10.0 mi West 16.1 mph - N/A   Clear
3:35 AM 80.6 °F - 32.0 °F 17% 29.82 in 10.0 mi West 16.1 mph - N/A   Clear
3:55 AM 78.8 °F - 32.0 °F 18% 29.82 in 10.0 mi West 16.1 mph - N/A   Clear
4:15 AM 77.0 °F - 32.0 °F 19% 29.83 in 10.0 mi West 15.0 mph - N/A   Clear
4:35 AM 77.0 °F - 32.0 °F 19% 29.83 in 10.0 mi WNW 11.5 mph - N/A   Clear
4:55 AM 75.2 °F - 32.0 °F 21% 29.84 in 10.0 mi West 10.4 mph - N/A   Clear
5:15 AM 73.4 °F - 32.0 °F 22% 29.86 in 10.0 mi NE 3.5 mph - N/A   Clear
5:35 AM 77.0 °F - 32.0 °F 19% 29.87 in 10.0 mi NNE 8.1 mph - N/A   Clear
5:55 AM 71.6 °F - 32.0 °F 23% 29.88 in 10.0 mi NE 4.6 mph - N/A   Clear
6:15 AM 71.6 °F - 32.0 °F 23% 29.90 in 10.0 mi East 3.5 mph - N/A   Clear
6:35 AM 73.4 °F - 32.0 °F 22% 29.91 in 10.0 mi NNE 6.9 mph - N/A   Clear
6:55 AM 71.6 °F - 32.0 °F 23% 29.92 in 10.0 mi Calm Calm - N/A   Clear
7:15 AM 73.4 °F - 32.0 °F 22% 29.94 in 10.0 mi North 4.6 mph - N/A   Clear
7:35 AM 78.8 °F - 32.0 °F 18% 29.94 in 10.0 mi North 18.4 mph 21.9 mph N/A   Clear
7:55 AM 77.0 °F - 39.2 °F 26% 29.96 in 10.0 mi North 23.0 mph 31.1 mph N/A   Clear
8:15 AM 77.0 °F - 42.8 °F 29% 29.97 in 10.0 mi North 23.0 mph 27.6 mph N/A   Clear
8:35 AM 77.0 °F - 44.6 °F 32% 29.97 in 10.0 mi North 24.2 mph 27.6 mph N/A   Clear
8:55 AM 77.0 °F - 48.2 °F 36% 29.99 in 10.0 mi North 24.2 mph 28.8 mph N/A   Clear
9:15 AM 77.0 °F - 48.2 °F 36% 29.99 in 8.0 mi North 21.9 mph 28.8 mph N/A   Clear
9:35 AM 78.8 °F - 51.8 °F 39% 29.99 in 9.0 mi North 24.2 mph 29.9 mph N/A   Clear
9:55 AM 78.8 °F - 57.2 °F 47% 30.00 in 8.0 mi NNE 23.0 mph 29.9 mph N/A   Clear
10:15 AM 80.6 °F 80.8 °F 57.2 °F 45% 30.00 in 7.0 mi North 23.0 mph 29.9 mph N/A   Clear
10:35 AM 80.6 °F 80.8 °F 57.2 °F 45% 30.01 in 8.0 mi North 23.0 mph 28.8 mph N/A   Clear
10:55 AM 80.6 °F 80.8 °F 57.2 °F 45% 30.01 in 7.0 mi North 17.3 mph 26.5 mph N/A   Clear
11:15 AM 82.4 °F 82.0 °F 57.2 °F 42% 30.01 in 8.0 mi North 18.4 mph 25.3 mph N/A   Clear
11:35 AM 82.4 °F 82.0 °F 57.2 °F 42% 30.00 in 9.0 mi North 17.3 mph 25.3 mph N/A   Clear
11:55 AM 82.4 °F 82.0 °F 57.2 °F 42% 30.00 in 9.0 mi North 15.0 mph 23.0 mph N/A   Clear
12:15 PM 84.2 °F 83.0 °F 55.4 °F 37% 29.99 in 8.0 mi North 17.3 mph 26.5 mph N/A   Clear
12:35 PM 86.0 °F 84.5 °F 55.4 °F 35% 29.99 in 7.0 mi North 18.4 mph 31.1 mph N/A   Clear
12:55 PM 84.2 °F 83.0 °F 55.4 °F 37% 29.99 in 7.0 mi North 9.2 mph 20.7 mph N/A   Clear
1:15 PM 86.0 °F 84.5 °F 55.4 °F 35% 29.97 in 7.0 mi North 16.1 mph 28.8 mph N/A   Clear
1:35 PM 86.0 °F 84.5 °F 55.4 °F 35% 29.96 in 6.0 mi North 9.2 mph 19.6 mph N/A   Haze
1:55 PM 87.8 °F 85.7 °F 53.6 °F 31% 29.95 in 7.0 mi North 10.4 mph 18.4 mph N/A   Clear
2:15 PM 89.6 °F - 51.8 °F 27% 29.94 in 8.0 mi NNE 9.2 mph - N/A   Clear
2:35 PM 89.6 °F - 50.0 °F 26% 29.93 in 9.0 mi NNE 6.9 mph 18.4 mph N/A   Clear
2:55 PM 91.4 °F - 50.0 °F 24% 29.91 in 10.0 mi NE 11.5 mph - N/A   Clear
3:15 PM 91.4 °F - 48.2 °F 23% 29.90 in 9.0 mi NNE 6.9 mph - N/A   Clear
3:35 PM 91.4 °F - 48.2 °F 23% 29.90 in 9.0 mi East 6.9 mph - N/A   Clear
3:55 PM 91.4 °F - 48.2 °F 23% 29.88 in 9.0 mi ENE 4.6 mph - N/A   Clear
4:15 PM 93.2 °F - 46.4 °F 20% 29.87 in 9.0 mi NE 6.9 mph - N/A   Clear
4:35 PM 93.2 °F - 46.4 °F 20% 29.86 in 10.0 mi East 8.1 mph 17.3 mph N/A   Clear
4:55 PM 93.2 °F - 44.6 °F 19% 29.85 in 10.0 mi SSW 3.5 mph - N/A   Clear
5:15 PM 93.2 °F - 42.8 °F 17% 29.84 in 10.0 mi West 4.6 mph - N/A   Clear
5:35 PM 93.2 °F - 41.0 °F 16% 29.83 in 10.0 mi SSW 9.2 mph - N/A   Clear
5:55 PM 93.2 °F - 37.4 °F 14% 29.82 in 10.0 mi SW 8.1 mph 29.9 mph N/A   Clear
6:15 PM 93.2 °F - 37.4 °F 14% 29.81 in 10.0 mi WSW 5.8 mph - N/A   Clear
6:35 PM 93.2 °F - 35.6 °F 13% 29.81 in 10.0 mi Calm Calm - N/A   Clear
6:55 PM 93.2 °F - 35.6 °F 13% 29.82 in 10.0 mi Calm Calm - N/A   Clear
7:15 PM 93.2 °F - 35.6 °F 13% 29.83 in 10.0 mi Calm Calm - N/A   Clear
7:35 PM 93.2 °F - 35.6 °F 13% 29.83 in 10.0 mi NW 3.5 mph - N/A   Clear
7:55 PM 91.4 °F - 35.6 °F 14% 29.84 in 10.0 mi Calm Calm - N/A   Clear
8:15 PM 89.6 °F - 37.4 °F 16% 29.86 in 10.0 mi NNE 6.9 mph - N/A   Clear
8:35 PM 84.2 °F - 48.2 °F 29% 29.88 in 0.8 mi NNE 48.3 mph 57.5 mph N/A Rain Light Rain
8:55 PM 71.6 °F - 48.2 °F 43% 29.91 in 0.8 mi NNE 34.5 mph 48.3 mph N/A   Haze
9:15 PM 69.8 °F - 50.0 °F 49% 29.93 in 1.8 mi NNE 36.8 mph 44.9 mph N/A   Haze
9:35 PM 68.0 °F - 50.0 °F 52% 29.95 in 4.0 mi NE 28.8 mph 41.4 mph N/A   Haze
9:55 PM 68.0 °F - 50.0 °F 52% 29.96 in 2.5 mi NE 24.2 mph 34.5 mph N/A   Haze
10:15 PM 68.0 °F - 50.0 °F 52% 29.96 in 5.0 mi NE 20.7 mph 28.8 mph N/A   Haze
10:35 PM 68.0 °F - 48.2 °F 49% 29.98 in 8.0 mi NE 13.8 mph 23.0 mph N/A   Partly Cloudy
10:55 PM 68.0 °F - 48.2 °F 49% 29.98 in 9.0 mi North 10.4 mph - N/A   Clear
11:15 PM 68.0 °F - 48.2 °F 49% 30.00 in 7.0 mi NW 10.4 mph - N/A   Clear
11:35 PM 68.0 °F - 50.0 °F 52% 30.01 in 8.0 mi West 10.4 mph - N/A   Clear
11:55 PM 68.0 °F - 50.0 °F 52% 30.01 in 8.0 mi West 9.2 mph - N/A   Clear